Location: ??
(34.9170°N, 135.5016°E)
Time: 00:10:17
(UTC+00:00)

RS-15 - Pass Details

Date: 20 April 2021
Orbit: 1888 x 2157 km, 64.8° (Epoch: 12 May)

Event Time Altitude Azimuth Distance (km) Brightness Sun altitude
Rises 10:26:24 0° 228° (SW) 5,267 10.7 -10.9°
Reaches altitude 10° 10:29:46 10° 234° (SW) 4,288 10.3 -11.6°
Maximum altitude 10:40:19 51° 308° (NW) 2,356 8.9 -13.6°
Drops below altitude 10° 10:51:26 10° 22° (NNE) 4,483 10.0 -15.6°
Sets 10:55:05 0° 28° (NNE) 5,522 10.4 -16.3°
